Location: Baili�vre
(50.0696°N, 4.2409°E)
Time: 09:58:32
(UTC+00:00)

Sich 1 - Pass Details

Date: 08 August 2020
Orbit: 593 x 626 km, 82.5° (Epoch: 21 September)

Event Time Altitude Azimuth Distance (km) Brightness Sun altitude
Rises 19:58:35 0° 173° (S) 2,894 6.1 -7.0°
Reaches altitude 10° 20:00:51 10° 167° (SSE) 1,995 5.2 -7.3°
Maximum altitude 20:05:07 48° 94° (E) 824 3.4 -7.9°
Drops below altitude 10° 20:09:24 10° 20° (NNE) 2,014 5.9 -8.4°
Sets 20:11:42 0° 15° (NNE) 2,925 6.8 -8.7°
